Date String (YYYY-MM-DD hh:mm:ss) UTC,Instrument flags,Ambient pressure (hPa),Sample flow (lpm),Bypass flow (lpm),Sample temperature (°C),Ambient temperature (°C),ASC tube jacket temperature (°C),LED temperature (°C),Box temperature (°C),Sample RH (%),Span deviation,Mass concentration (μg/m³),Mass concentration (μg/m³),Mass concentration (μg/m³)
DateTimeUTC,F1_M11,P_M11,Q1_M11,Q2_M11,T1_M11,T2_M11,T3_M11,T4_M11,T5_M11,U1_M11,ZSPAN_M11,X0_M11,X2_M11,X1_M11
2023-01-06 11:00:00,,0820.9,5.00,0.00,22.6,21.6,00.0,31.4,24.4,08.7,0000.0,0007.31,0004.18,0003.77
2023-01-06 11:01:00,,0820.9,5.02,0.00,22.6,21.4,00.0,31.4,24.3,08.7,0000.0,0007.25,0004.17,0003.76
2023-01-06 11:02:00,,0820.9,5.00,0.00,22.6,21.2,00.0,31.4,24.2,08.7,0000.0,0007.41,0004.16,0003.76
2023-01-06 11:03:00,,0820.9,4.99,0.00,22.5,21.1,00.0,31.4,24.1,08.8,0000.0,0007.46,0004.17,0003.76
2023-01-06 11:04:00,,0820.9,5.00,0.00,22.5,21.0,00.0,31.4,24.1,08.8,0000.0,0007.51,0004.16,0003.73
2023-01-06 11:05:00,,0820.9,5.00,0.00,22.5,20.9,00.0,31.4,24.1,08.8,0000.0,0007.69,0004.14,0003.71
2023-01-06 11:06:00,,0820.9,5.00,0.00,22.4,20.9,00.0,31.4,24.1,08.8,0000.0,0007.75,0004.13,0003.68
2023-01-06 11:07:00,,0820.9,5.01,0.00,22.4,20.9,00.0,31.3,24.0,08.9,0000.0,0008.10,0004.10,0003.65
2023-01-06 11:08:00,,0820.9,5.00,0.00,22.4,20.9,00.0,31.3,24.0,08.9,0000.0,0008.20,0004.07,0003.61
2023-01-06 11:09:00,,0820.9,5.00,0.00,22.3,20.8,00.0,31.3,23.9,08.9,0000.0,0008.38,0004.02,0003.56
2023-01-06 11:10:00,,0820.9,5.00,0.00,22.3,20.9,00.0,31.2,23.9,08.9,0000.0,0008.63,0003.95,0003.49
2023-01-06 11:11:00,,0820.9,5.01,0.00,22.4,21.7,00.0,31.2,24.1,08.9,0000.0,0008.75,0003.86,0003.42
2023-01-06 11:12:00,,0820.9,5.00,0.00,22.5,22.6,00.0,31.2,24.4,08.8,0000.0,0008.74,0003.82,0003.37
2023-01-06 11:13:00,,0820.9,4.99,0.00,22.6,22.9,00.0,31.2,24.6,08.8,0000.0,0008.46,0003.75,0003.31
2023-01-06 11:14:00,,0820.8,4.98,0.00,22.6,22.5,00.0,31.3,24.5,08.7,0000.0,0009.13,0003.69,0003.26
2023-01-06 11:15:00,,0820.7,5.01,0.00,22.6,22.1,00.0,31.3,24.4,08.6,0000.0,0009.61,0003.61,0003.21
2023-01-06 11:16:00,,0820.7,5.00,0.00,22.6,21.7,00.0,31.3,24.4,08.6,0000.0,0009.41,0003.53,0003.15
2023-01-06 11:17:00,,0820.7,4.98,0.00,22.6,21.5,00.0,31.4,24.3,08.7,0000.0,0009.42,0003.49,0003.08
2023-01-06 11:18:00,,0820.7,5.01,0.00,22.5,21.3,00.0,31.4,24.2,08.7,0000.0,0008.96,0003.41,0002.98
2023-01-06 11:19:00,,0820.7,5.01,0.00,22.5,21.2,00.0,31.4,24.2,08.7,0000.0,0008.68,0003.35,0002.89
2023-01-06 11:20:00,,0820.7,4.99,0.00,22.5,21.1,00.0,31.4,24.1,08.6,0000.0,0008.40,0003.26,0002.78
2023-01-06 11:21:00,,0820.7,4.99,0.00,22.5,21.0,00.0,31.3,24.1,08.6,0000.0,0008.60,0003.19,0002.68
2023-01-06 11:22:00,,0820.7,5.01,0.00,22.4,20.9,00.0,31.3,24.1,08.7,0000.0,0008.60,0003.15,0002.61
2023-01-06 11:23:00,,0820.7,5.01,0.00,22.4,20.8,00.0,31.3,24.0,08.6,0000.0,0008.49,0003.05,0002.54
2023-01-06 11:24:00,,0820.7,5.01,0.00,22.4,20.7,00.0,31.3,24.0,08.6,0000.0,0008.44,0002.97,0002.46
2023-01-06 11:25:00,,0820.7,5.00,0.00,22.3,20.7,00.0,31.3,24.0,08.6,0000.0,0007.77,0002.91,0002.40
2023-01-06 11:26:00,,0820.7,4.99,0.00,22.3,20.6,00.0,31.3,23.9,08.6,0000.0,0007.50,0002.89,0002.35
2023-01-06 11:27:00,,0820.8,4.99,0.00,22.3,21.1,00.0,31.2,24.0,08.7,0000.0,0007.11,0002.88,0002.31
2023-01-06 11:28:00,,0820.8,5.01,0.00,22.4,22.1,00.0,31.2,24.3,08.7,0000.0,0006.90,0002.80,0002.29
2023-01-06 11:29:00,,0820.8,5.00,0.00,22.5,23.1,00.0,31.2,24.6,08.6,0000.0,0006.65,0002.75,0002.28
2023-01-06 11:30:00,,0820.8,4.98,0.00,22.6,23.0,00.0,31.3,24.6,08.6,0000.0,0006.51,0002.70,0002.27
2023-01-06 11:31:00,,0820.8,5.00,0.00,22.6,22.5,00.0,31.3,24.5,08.6,0000.0,0006.46,0002.74,0002.30
2023-01-06 11:32:00,,0820.7,5.00,0.00,22.6,22.1,00.0,31.3,24.4,08.6,0000.0,0005.46,0002.78,0002.31
2023-01-06 11:33:00,,0820.7,5.00,0.00,22.6,21.7,00.0,31.3,24.4,08.6,0000.0,0006.75,0002.77,0002.30
2023-01-06 11:34:00,,0820.7,5.00,0.00,22.6,21.5,00.0,31.4,24.3,08.6,0000.0,0007.34,0002.78,0002.31
2023-01-06 11:35:00,,0820.7,5.01,0.00,22.6,21.3,00.0,31.4,24.2,08.6,0000.0,0007.40,0002.77,0002.30
2023-01-06 11:36:00,,0820.6,5.00,0.00,22.5,21.1,00.0,31.4,24.2,08.5,0000.0,0007.35,0002.70,0002.26
2023-01-06 11:37:00,,0820.6,5.00,0.00,22.5,21.0,00.0,31.3,24.2,08.5,0000.0,0006.56,0002.60,0002.23
2023-01-06 11:38:00,,0820.6,4.97,0.00,22.5,20.9,00.0,31.3,24.1,08.4,0000.0,0006.19,0002.50,0002.18
2023-01-06 11:39:00,,0820.6,5.01,0.00,22.4,20.9,00.0,31.3,24.1,08.5,0000.0,0006.05,0002.42,0002.10
2023-01-06 11:40:00,,0820.6,5.00,0.00,22.4,20.9,00.0,31.3,24.1,08.5,0000.0,0005.93,0002.32,0002.01
2023-01-06 11:41:00,,0820.6,5.01,0.00,22.4,20.8,00.0,31.3,24.0,08.5,0000.0,0005.92,0002.27,0001.92
2023-01-06 11:42:00,,0820.6,5.01,0.00,22.4,20.7,00.0,31.3,24.0,08.5,0000.0,0005.77,0002.16,0001.83
2023-01-06 11:43:00,,0820.6,5.00,0.00,22.3,20.7,00.0,31.2,24.0,08.6,0000.0,0005.74,0002.09,0001.77
2023-01-06 11:44:00,,0820.6,5.00,0.00,22.3,20.8,00.0,31.2,23.9,08.6,0000.0,0003.76,0002.02,0001.72
2023-01-06 11:45:00,,0820.6,4.99,0.00,22.4,21.7,00.0,31.2,24.2,08.6,0000.0,0003.05,0001.93,0001.66
2023-01-06 11:46:00,,0820.6,5.00,0.00,22.5,22.7,00.0,31.2,24.4,08.5,0000.0,0003.03,0001.89,0001.62
2023-01-06 11:47:00,,0820.6,5.00,0.00,22.6,23.2,00.0,31.2,24.6,08.5,0000.0,0003.05,0001.89,0001.61
2023-01-06 11:48:00,,0820.6,4.98,0.00,22.7,22.8,00.0,31.3,24.6,08.5,0000.0,0003.12,0001.93,0001.62
2023-01-06 11:49:00,,0820.6,5.00,0.00,22.7,22.3,00.0,31.3,24.5,08.5,0000.0,0003.15,0001.96,0001.64
2023-01-06 11:50:00,,0820.6,5.00,0.00,22.6,21.9,00.0,31.3,24.4,08.5,0000.0,0003.14,0001.98,0001.65
2023-01-06 11:51:00,,0820.6,5.01,0.00,22.6,21.6,00.0,31.4,24.4,08.5,0000.0,0003.28,0002.05,0001.67
2023-01-06 11:52:00,,0820.6,5.01,0.00,22.6,21.4,00.0,31.4,24.3,08.5,0000.0,0003.30,0002.08,0001.70
2023-01-06 11:53:00,,0820.6,5.00,0.00,22.6,21.2,00.0,31.4,24.3,08.6,0000.0,0003.26,0002.08,0001.72
2023-01-06 11:54:00,,0820.7,5.00,0.00,22.6,21.1,00.0,31.4,24.2,08.6,0000.0,0003.17,0002.07,0001.73
2023-01-06 11:55:00,,0820.7,5.00,0.00,22.5,21.0,00.0,31.4,24.2,08.6,0000.0,0003.03,0002.05,0001.74
2023-01-06 11:56:00,,0820.6,5.00,0.00,22.5,21.0,00.0,31.4,24.2,08.6,0000.0,0003.00,0002.05,0001.75
2023-01-06 11:57:00,,0820.6,4.98,0.00,22.5,21.0,00.0,31.3,24.2,08.6,0000.0,0002.97,0002.06,0001.76
2023-01-06 11:58:00,,0820.7,5.00,0.00,22.5,21.0,00.0,31.3,24.2,08.6,0000.0,0002.77,0002.05,0001.75
2023-01-06 11:59:00,,0820.6,5.00,0.00,22.5,21.0,00.0,31.3,24.2,08.5,0000.0,0002.72,0002.01,0001.74
